Year,Month,Day,Hour,Minute,Value (Times are PST for temperature in C)
2012,06,28,00,00,10.10
2012,06,28,00,01,10.10
2012,06,28,00,02,10.10
2012,06,28,00,03,10.10
2012,06,28,00,04,10.10
2012,06,28,00,05,10.10
2012,06,28,00,06,10.10
2012,06,28,00,07,10.10
2012,06,28,00,08,10.10
2012,06,28,00,09,10.10
2012,06,28,00,10,10.00
2012,06,28,00,11,9.90
2012,06,28,00,12,9.90
2012,06,28,00,13,9.90
2012,06,28,00,14,9.90
2012,06,28,00,15,9.90
2012,06,28,00,16,9.90
2012,06,28,00,17,9.80
2012,06,28,00,18,9.80
2012,06,28,00,19,9.80
2012,06,28,00,20,9.80
2012,06,28,00,21,9.80
2012,06,28,00,22,9.80
2012,06,28,00,23,9.70
2012,06,28,00,24,9.70
2012,06,28,00,25,9.70
2012,06,28,00,26,9.70
2012,06,28,00,27,9.70
2012,06,28,00,28,9.70
2012,06,28,00,29,9.70
2012,06,28,00,30,9.70
2012,06,28,00,31,9.70
2012,06,28,00,32,9.70
2012,06,28,00,33,9.70
2012,06,28,00,34,9.70
2012,06,28,00,35,9.70
2012,06,28,00,36,9.70
2012,06,28,00,37,9.70
2012,06,28,00,38,9.70
2012,06,28,00,39,9.60
2012,06,28,00,40,9.60
2012,06,28,00,41,9.60
2012,06,28,00,42,9.60
2012,06,28,00,43,9.60
2012,06,28,00,44,9.60
2012,06,28,00,45,9.60
2012,06,28,00,46,9.50
2012,06,28,00,47,9.50
2012,06,28,00,48,9.50
2012,06,28,00,49,9.50
2012,06,28,00,50,9.50
2012,06,28,00,51,9.40
2012,06,28,00,52,9.40
2012,06,28,00,53,9.40
2012,06,28,00,54,9.40
2012,06,28,00,55,9.40
2012,06,28,00,56,9.30
2012,06,28,00,57,9.30
2012,06,28,00,58,9.30
2012,06,28,00,59,9.30
2012,06,28,01,00,9.20
2012,06,28,01,01,9.20
2012,06,28,01,02,9.20
2012,06,28,01,03,9.20
2012,06,28,01,04,9.20
2012,06,28,01,05,9.20
2012,06,28,01,06,9.20
2012,06,28,01,07,9.20
2012,06,28,01,08,9.10
2012,06,28,01,09,9.10
2012,06,28,01,10,9.10
2012,06,28,01,11,9.10
2012,06,28,01,12,9.10
2012,06,28,01,13,9.10
2012,06,28,01,14,9.00
2012,06,28,01,15,9.00
2012,06,28,01,16,9.00
2012,06,28,01,17,9.00
2012,06,28,01,18,9.00
2012,06,28,01,19,9.00
2012,06,28,01,20,9.00
2012,06,28,01,21,9.00
2012,06,28,01,22,9.00
2012,06,28,01,23,9.00
2012,06,28,01,24,9.00
2012,06,28,01,25,9.00
2012,06,28,01,26,9.00
2012,06,28,01,27,9.00
2012,06,28,01,28,9.00
2012,06,28,01,29,8.90
2012,06,28,01,30,8.90
2012,06,28,01,31,8.90
2012,06,28,01,32,8.90
2012,06,28,01,33,8.90
2012,06,28,01,34,8.90
2012,06,28,01,35,8.80
2012,06,28,01,36,8.80
2012,06,28,01,37,8.80
2012,06,28,01,38,8.80
2012,06,28,01,39,8.80
2012,06,28,01,40,8.80
2012,06,28,01,41,8.80
2012,06,28,01,42,8.80
2012,06,28,01,43,8.80
2012,06,28,01,44,8.80
2012,06,28,01,45,8.80
2012,06,28,01,46,8.80
2012,06,28,01,47,8.80
2012,06,28,01,48,8.70
2012,06,28,01,49,8.70
2012,06,28,01,50,8.70
2012,06,28,01,51,8.70
2012,06,28,01,52,8.70
2012,06,28,01,53,8.70
2012,06,28,01,54,8.70
2012,06,28,01,55,8.70
2012,06,28,01,56,8.70
2012,06,28,01,57,8.70
2012,06,28,01,58,8.70
2012,06,28,01,59,8.70
2012,06,28,02,00,8.70
2012,06,28,02,01,8.70
2012,06,28,02,02,8.60
2012,06,28,02,03,8.60
2012,06,28,02,04,8.60
2012,06,28,02,05,8.60
2012,06,28,02,06,8.60
2012,06,28,02,07,8.60
2012,06,28,02,08,8.60
2012,06,28,02,09,8.60
2012,06,28,02,10,8.60
2012,06,28,02,11,8.60
2012,06,28,02,12,8.50
2012,06,28,02,13,8.50
2012,06,28,02,14,8.50
2012,06,28,02,15,8.50
2012,06,28,02,16,8.50
2012,06,28,02,17,8.40
2012,06,28,02,18,8.40
2012,06,28,02,19,8.40
2012,06,28,02,20,8.40
2012,06,28,02,21,8.40
2012,06,28,02,22,8.30
2012,06,28,02,23,8.30
2012,06,28,02,24,8.30
2012,06,28,02,25,8.30
2012,06,28,02,26,8.30
2012,06,28,02,27,8.30
2012,06,28,02,28,8.30
2012,06,28,02,29,8.30
2012,06,28,02,30,8.30
2012,06,28,02,31,8.30
2012,06,28,02,32,8.30
2012,06,28,02,33,8.30
2012,06,28,02,34,8.30
2012,06,28,02,35,8.30
2012,06,28,02,36,8.30
2012,06,28,02,37,8.30
2012,06,28,02,38,8.30
2012,06,28,02,39,8.30
2012,06,28,02,40,8.30
2012,06,28,02,41,8.30
2012,06,28,02,42,8.20
2012,06,28,02,43,8.20
2012,06,28,02,44,8.20
2012,06,28,02,45,8.20
2012,06,28,02,46,8.20
2012,06,28,02,47,8.20
2012,06,28,02,48,8.20
2012,06,28,02,49,8.20
2012,06,28,02,50,8.20
2012,06,28,02,51,8.20
2012,06,28,02,52,8.20
2012,06,28,02,53,8.20
2012,06,28,02,54,8.20
2012,06,28,02,55,8.20
2012,06,28,02,56,8.20
2012,06,28,02,57,8.20
2012,06,28,02,58,8.20
2012,06,28,02,59,8.20
2012,06,28,03,00,8.20
2012,06,28,03,01,8.20
2012,06,28,03,02,8.20
2012,06,28,03,03,8.20
2012,06,28,03,04,8.20
2012,06,28,03,05,8.20
2012,06,28,03,06,8.20
2012,06,28,03,07,8.20
2012,06,28,03,08,8.20
2012,06,28,03,09,8.20
2012,06,28,03,10,8.20
2012,06,28,03,11,8.20
2012,06,28,03,12,8.20
2012,06,28,03,13,8.20
2012,06,28,03,14,8.20
2012,06,28,03,15,8.20
2012,06,28,03,16,8.20
2012,06,28,03,17,8.20
2012,06,28,03,18,8.20
2012,06,28,03,19,8.20
2012,06,28,03,20,8.20
2012,06,28,03,21,8.20
2012,06,28,03,22,8.20
2012,06,28,03,23,8.20
2012,06,28,03,24,8.20
2012,06,28,03,25,8.20
2012,06,28,03,26,8.10
2012,06,28,03,27,8.10
2012,06,28,03,28,8.10
2012,06,28,03,29,8.10
2012,06,28,03,30,8.10
2012,06,28,03,31,8.10
2012,06,28,03,32,8.10
2012,06,28,03,33,8.10
2012,06,28,03,34,8.10
2012,06,28,03,35,8.10
2012,06,28,03,36,8.10
2012,06,28,03,37,8.10
2012,06,28,03,38,8.10
2012,06,28,03,39,8.00
2012,06,28,03,40,8.00
2012,06,28,03,41,8.00
2012,06,28,03,42,8.00
2012,06,28,03,43,8.00
2012,06,28,03,44,8.00
2012,06,28,03,45,8.00
2012,06,28,03,46,8.00
2012,06,28,03,47,8.00
2012,06,28,03,48,8.00
2012,06,28,03,49,8.00
2012,06,28,03,50,8.00
2012,06,28,03,51,8.00
2012,06,28,03,52,8.00
2012,06,28,03,53,8.00
2012,06,28,03,54,8.00
2012,06,28,03,55,8.00
2012,06,28,03,56,8.00
2012,06,28,03,57,7.90
2012,06,28,03,58,7.90
2012,06,28,03,59,7.90
2012,06,28,04,00,7.90
2012,06,28,04,01,7.90
2012,06,28,04,02,7.90
2012,06,28,04,03,7.90
2012,06,28,04,04,7.90
2012,06,28,04,05,7.90
2012,06,28,04,06,7.90
2012,06,28,04,07,7.90
2012,06,28,04,08,7.80
2012,06,28,04,09,7.80
2012,06,28,04,10,7.80
2012,06,28,04,11,7.80
2012,06,28,04,12,7.80
2012,06,28,04,13,7.80
2012,06,28,04,14,7.80
2012,06,28,04,15,7.80
2012,06,28,04,16,7.80
2012,06,28,04,17,7.80
2012,06,28,04,18,7.80
2012,06,28,04,19,7.80
2012,06,28,04,20,7.80
2012,06,28,04,21,7.80
2012,06,28,04,22,7.80
2012,06,28,04,23,7.80
2012,06,28,04,24,7.80
2012,06,28,04,25,7.80
2012,06,28,04,26,7.80
2012,06,28,04,27,7.80
2012,06,28,04,28,7.80
2012,06,28,04,29,7.80
2012,06,28,04,30,7.80
2012,06,28,04,31,7.70
2012,06,28,04,32,7.70
2012,06,28,04,33,7.70
2012,06,28,04,34,7.70
2012,06,28,04,35,7.70
2012,06,28,04,36,7.70
2012,06,28,04,37,7.80
2012,06,28,04,38,7.80
2012,06,28,04,39,7.80
2012,06,28,04,40,7.80
2012,06,28,04,41,7.80
2012,06,28,04,42,7.80
2012,06,28,04,43,7.80
2012,06,28,04,44,7.80
2012,06,28,04,45,7.80
2012,06,28,04,46,7.80
2012,06,28,04,47,7.80
2012,06,28,04,48,7.80
2012,06,28,04,49,7.80
2012,06,28,04,50,7.80
2012,06,28,04,51,7.80
2012,06,28,04,52,7.80
2012,06,28,04,53,7.80
2012,06,28,04,54,7.80
2012,06,28,04,55,7.80
2012,06,28,04,56,7.80
2012,06,28,04,57,7.80
2012,06,28,04,58,7.80
2012,06,28,04,59,7.80
2012,06,28,05,00,7.80
2012,06,28,05,01,7.80
2012,06,28,05,02,7.80
2012,06,28,05,03,7.80
2012,06,28,05,04,7.80
2012,06,28,05,05,7.80
2012,06,28,05,06,7.80
2012,06,28,05,07,7.80
2012,06,28,05,08,7.80
2012,06,28,05,09,7.80
2012,06,28,05,10,7.80
2012,06,28,05,11,7.80
2012,06,28,05,12,7.80
2012,06,28,05,13,7.80
2012,06,28,05,14,7.80
2012,06,28,05,15,7.80
2012,06,28,05,16,7.80
2012,06,28,05,17,7.80
2012,06,28,05,18,7.80
2012,06,28,05,19,7.80
2012,06,28,05,20,7.80
2012,06,28,05,21,7.80
2012,06,28,05,22,7.80
2012,06,28,05,23,7.80
2012,06,28,05,24,7.80
2012,06,28,05,25,7.80
2012,06,28,05,26,7.80
2012,06,28,05,27,7.80
2012,06,28,05,28,7.80
2012,06,28,05,29,7.80
2012,06,28,05,30,7.80
2012,06,28,05,31,7.80
2012,06,28,05,32,7.80
2012,06,28,05,33,7.80
2012,06,28,05,34,7.80
2012,06,28,05,35,7.80
2012,06,28,05,36,7.80
2012,06,28,05,37,7.80
2012,06,28,05,38,7.80
2012,06,28,05,39,7.80
2012,06,28,05,40,7.80
2012,06,28,05,41,7.80
2012,06,28,05,42,7.80
2012,06,28,05,43,7.80
2012,06,28,05,44,7.80
2012,06,28,05,45,7.90
2012,06,28,05,46,7.90
2012,06,28,05,47,7.90
2012,06,28,05,48,7.90
2012,06,28,05,49,7.90
2012,06,28,05,50,7.90
2012,06,28,05,51,7.90
2012,06,28,05,52,7.90
2012,06,28,05,53,7.90
2012,06,28,05,54,7.90
2012,06,28,05,55,7.90
2012,06,28,05,56,7.90
2012,06,28,05,57,7.90
2012,06,28,05,58,7.90
2012,06,28,05,59,7.90
2012,06,28,06,00,7.90
2012,06,28,06,01,8.00
2012,06,28,06,02,8.00
2012,06,28,06,03,8.00
2012,06,28,06,04,8.00
2012,06,28,06,05,8.00
2012,06,28,06,06,8.00
2012,06,28,06,07,8.00
2012,06,28,06,08,8.00
2012,06,28,06,09,8.00
2012,06,28,06,10,8.00
2012,06,28,06,11,8.00
2012,06,28,06,12,8.00
2012,06,28,06,13,8.00
2012,06,28,06,14,8.00
2012,06,28,06,15,8.00
2012,06,28,06,16,8.10
2012,06,28,06,17,8.10
2012,06,28,06,18,8.10
2012,06,28,06,19,8.10
2012,06,28,06,20,8.10
2012,06,28,06,21,8.10
2012,06,28,06,22,8.10
2012,06,28,06,23,8.20
2012,06,28,06,24,8.20
2012,06,28,06,25,8.20
2012,06,28,06,26,8.20
2012,06,28,06,27,8.30
2012,06,28,06,28,8.30
2012,06,28,06,29,8.30
2012,06,28,06,30,8.40
2012,06,28,06,31,8.40
2012,06,28,06,32,8.50
2012,06,28,06,33,8.50
2012,06,28,06,34,8.60
2012,06,28,06,35,8.60
2012,06,28,06,36,8.70
2012,06,28,06,37,8.70
2012,06,28,06,38,8.70
2012,06,28,06,39,8.90
2012,06,28,06,40,9.00
2012,06,28,06,41,9.10
2012,06,28,06,42,9.20
2012,06,28,06,43,9.30
2012,06,28,06,44,9.40
2012,06,28,06,45,9.50
2012,06,28,06,46,9.60
2012,06,28,06,47,9.70
2012,06,28,06,48,9.70
2012,06,28,06,49,9.70
2012,06,28,06,50,9.80
2012,06,28,06,51,9.80
2012,06,28,06,52,9.90
2012,06,28,06,53,9.90
2012,06,28,06,54,9.90
2012,06,28,06,55,10.00
2012,06,28,06,56,10.10
2012,06,28,06,57,10.10
2012,06,28,06,58,10.20
2012,06,28,06,59,10.20
2012,06,28,07,00,10.20
2012,06,28,07,01,10.30
2012,06,28,07,02,10.30
2012,06,28,07,03,10.30
2012,06,28,07,04,10.40
2012,06,28,07,05,10.40
2012,06,28,07,06,10.60
2012,06,28,07,07,10.60
2012,06,28,07,08,10.70
2012,06,28,07,09,10.80
2012,06,28,07,10,10.90
2012,06,28,07,11,11.00
2012,06,28,07,12,11.10
2012,06,28,07,13,11.20
2012,06,28,07,14,11.30
2012,06,28,07,15,11.40
2012,06,28,07,16,11.50
2012,06,28,07,17,11.60
2012,06,28,07,18,11.70
2012,06,28,07,19,11.80
2012,06,28,07,20,11.80
2012,06,28,07,21,11.90
2012,06,28,07,22,12.00
2012,06,28,07,23,12.00
2012,06,28,07,24,12.10
2012,06,28,07,25,12.20
2012,06,28,07,26,12.20
2012,06,28,07,27,12.30
2012,06,28,07,28,12.30
2012,06,28,07,29,12.30
2012,06,28,07,30,12.40
2012,06,28,07,31,12.40
2012,06,28,07,32,12.40
2012,06,28,07,33,12.50
2012,06,28,07,34,12.50
2012,06,28,07,35,12.50
2012,06,28,07,36,12.60
2012,06,28,07,37,12.60
2012,06,28,07,38,12.70
2012,06,28,07,39,12.80
2012,06,28,07,40,12.90
2012,06,28,07,41,13.00
2012,06,28,07,42,13.00
2012,06,28,07,43,13.10
2012,06,28,07,44,13.20
2012,06,28,07,45,13.30
2012,06,28,07,46,13.40
2012,06,28,07,47,13.50
2012,06,28,07,48,13.50
2012,06,28,07,49,13.60
2012,06,28,07,50,13.70
2012,06,28,07,51,13.70
2012,06,28,07,52,13.80
2012,06,28,07,53,13.80
2012,06,28,07,54,13.90
2012,06,28,07,55,14.00
2012,06,28,07,56,14.00
2012,06,28,07,57,14.10
2012,06,28,07,58,14.20
2012,06,28,07,59,14.20
2012,06,28,08,00,14.20
2012,06,28,08,01,14.30
2012,06,28,08,02,14.30
2012,06,28,08,03,14.40
2012,06,28,08,04,14.40
2012,06,28,08,05,14.50
2012,06,28,08,06,14.50
2012,06,28,08,07,14.60
2012,06,28,08,08,14.60
2012,06,28,08,09,14.70
2012,06,28,08,10,14.70
2012,06,28,08,11,14.80
2012,06,28,08,12,14.80
2012,06,28,08,13,14.90
2012,06,28,08,14,14.90
2012,06,28,08,15,14.90
2012,06,28,08,16,15.00
2012,06,28,08,17,15.00
2012,06,28,08,18,15.00
2012,06,28,08,19,15.10
2012,06,28,08,20,15.10
2012,06,28,08,21,15.10
2012,06,28,08,22,15.20
2012,06,28,08,23,15.20
2012,06,28,08,24,15.20
2012,06,28,08,25,15.30
2012,06,28,08,26,15.30
2012,06,28,08,27,15.40
2012,06,28,08,28,15.50
2012,06,28,08,29,15.50
2012,06,28,08,30,15.60
2012,06,28,08,31,15.70
2012,06,28,08,32,15.80
2012,06,28,08,33,15.90
2012,06,28,08,34,16.00
2012,06,28,08,35,16.10
2012,06,28,08,36,16.10
2012,06,28,08,37,16.20
2012,06,28,08,38,16.30
2012,06,28,08,39,16.30
2012,06,28,08,40,16.30
2012,06,28,08,41,16.40
2012,06,28,08,42,16.40
2012,06,28,08,43,16.50
2012,06,28,08,44,16.60
2012,06,28,08,45,16.60
2012,06,28,08,46,16.70
2012,06,28,08,47,16.70
2012,06,28,08,48,16.70
2012,06,28,08,49,16.80
2012,06,28,08,50,16.80
2012,06,28,08,51,16.90
2012,06,28,08,52,16.90
2012,06,28,08,53,16.90
2012,06,28,08,54,16.90
2012,06,28,08,55,16.90
2012,06,28,08,56,16.90
2012,06,28,08,57,17.00
2012,06,28,08,58,17.00
2012,06,28,08,59,17.00
2012,06,28,09,00,17.10
2012,06,28,09,01,17.10
2012,06,28,09,02,17.10
2012,06,28,09,03,17.20
2012,06,28,09,04,17.20
2012,06,28,09,05,17.20
2012,06,28,09,06,17.30
2012,06,28,09,07,17.30
2012,06,28,09,08,17.30
2012,06,28,09,09,17.40
2012,06,28,09,10,17.50
2012,06,28,09,11,17.70
2012,06,28,09,12,17.80
2012,06,28,09,13,17.90
2012,06,28,09,14,18.00
2012,06,28,09,15,18.10
2012,06,28,09,16,18.20
2012,06,28,09,17,18.20
2012,06,28,09,18,18.30
2012,06,28,09,19,18.40
2012,06,28,09,20,18.40
2012,06,28,09,21,18.50
2012,06,28,09,22,18.60
2012,06,28,09,23,18.70
2012,06,28,09,24,18.80
2012,06,28,09,25,18.90
2012,06,28,09,26,19.00
2012,06,28,09,27,19.10
2012,06,28,09,28,19.30
2012,06,28,09,29,19.30
2012,06,28,09,30,19.40
2012,06,28,09,31,19.40
2012,06,28,09,32,19.50
2012,06,28,09,33,19.50
2012,06,28,09,34,19.50
2012,06,28,09,35,19.50
2012,06,28,09,36,19.60
2012,06,28,09,37,19.60
2012,06,28,09,38,19.60
2012,06,28,09,39,19.60
2012,06,28,09,40,19.60
2012,06,28,09,41,19.60
2012,06,28,09,42,19.50
2012,06,28,09,43,19.50
2012,06,28,09,44,19.40
2012,06,28,09,45,19.40
2012,06,28,09,46,19.30
2012,06,28,09,47,19.20
2012,06,28,09,48,19.20
2012,06,28,09,49,19.10
2012,06,28,09,50,19.10
2012,06,28,09,51,19.10
2012,06,28,09,52,19.10
2012,06,28,09,53,19.10
2012,06,28,09,54,19.10
2012,06,28,09,55,19.10
2012,06,28,09,56,19.10
2012,06,28,09,57,19.10
2012,06,28,09,58,19.10
2012,06,28,09,59,19.10
2012,06,28,10,00,19.20
2012,06,28,10,01,19.20
2012,06,28,10,02,19.20
2012,06,28,10,03,19.30
2012,06,28,10,04,19.30
2012,06,28,10,05,19.40
2012,06,28,10,06,19.30
2012,06,28,10,07,19.30
2012,06,28,10,08,19.20
2012,06,28,10,09,19.20
2012,06,28,10,10,19.20
2012,06,28,10,11,19.30
2012,06,28,10,12,19.30
2012,06,28,10,13,19.30
2012,06,28,10,14,19.40
2012,06,28,10,15,19.50
2012,06,28,10,16,19.60
2012,06,28,10,17,19.70
2012,06,28,10,18,19.60
2012,06,28,10,19,19.50
2012,06,28,10,20,19.60
2012,06,28,10,21,19.60
2012,06,28,10,22,19.70
2012,06,28,10,23,19.70
2012,06,28,10,24,19.80
2012,06,28,10,25,19.80
2012,06,28,10,26,19.80
2012,06,28,10,27,19.70
2012,06,28,10,28,19.70
2012,06,28,10,29,19.60
2012,06,28,10,30,19.50
2012,06,28,10,31,19.40
2012,06,28,10,32,19.30
2012,06,28,10,33,19.20
2012,06,28,10,34,19.20
2012,06,28,10,35,19.30
2012,06,28,10,36,19.30
2012,06,28,10,37,19.30
2012,06,28,10,38,19.30
2012,06,28,10,39,19.30
2012,06,28,10,40,19.30
2012,06,28,10,41,19.10
2012,06,28,10,42,19.00
2012,06,28,10,43,18.90
2012,06,28,10,44,18.90
2012,06,28,10,45,18.90
2012,06,28,10,46,18.90
2012,06,28,10,47,18.80
2012,06,28,10,48,18.70
2012,06,28,10,49,18.70
2012,06,28,10,50,18.80
2012,06,28,10,51,18.80
2012,06,28,10,52,18.80
2012,06,28,10,53,18.80
2012,06,28,10,54,18.80
2012,06,28,10,55,18.80
2012,06,28,10,56,18.80
2012,06,28,10,57,18.90
2012,06,28,10,58,18.90
2012,06,28,10,59,18.90
2012,06,28,11,00,18.80
2012,06,28,11,01,18.80
2012,06,28,11,02,18.80
2012,06,28,11,03,18.90
2012,06,28,11,04,18.90
2012,06,28,11,05,19.00
2012,06,28,11,06,19.10
2012,06,28,11,07,19.10
2012,06,28,11,08,19.10
2012,06,28,11,09,19.10
2012,06,28,11,10,19.20
2012,06,28,11,11,19.30
2012,06,28,11,12,19.30
2012,06,28,11,13,19.30
2012,06,28,11,14,19.20
2012,06,28,11,15,19.20
2012,06,28,11,16,19.20
2012,06,28,11,17,19.30
2012,06,28,11,18,19.30
2012,06,28,11,19,19.20
2012,06,28,11,20,19.10
2012,06,28,11,21,19.10
2012,06,28,11,22,19.10
2012,06,28,11,23,19.10
2012,06,28,11,24,19.10
2012,06,28,11,25,19.10
2012,06,28,11,26,19.10
2012,06,28,11,27,19.10
2012,06,28,11,28,19.00
2012,06,28,11,29,18.90
2012,06,28,11,30,18.90
2012,06,28,11,31,18.90
2012,06,28,11,32,18.90
2012,06,28,11,33,18.90
2012,06,28,11,34,18.90
2012,06,28,11,35,18.90
2012,06,28,11,36,18.90
2012,06,28,11,37,18.90
2012,06,28,11,38,18.90
2012,06,28,11,39,18.80
2012,06,28,11,40,18.70
2012,06,28,11,41,18.60
2012,06,28,11,42,18.60
2012,06,28,11,43,18.50
2012,06,28,11,44,18.40
2012,06,28,11,45,18.30
2012,06,28,11,46,18.20
2012,06,28,11,47,18.00
2012,06,28,11,48,17.90
2012,06,28,11,49,17.90
2012,06,28,11,50,17.80
2012,06,28,11,51,17.90
2012,06,28,11,52,17.90
2012,06,28,11,53,17.90
2012,06,28,11,54,18.00
2012,06,28,11,55,18.10
2012,06,28,11,56,18.10
2012,06,28,11,57,18.20
2012,06,28,11,58,18.20
2012,06,28,11,59,18.10
2012,06,28,12,00,18.10
2012,06,28,12,01,18.10
2012,06,28,12,02,18.10
2012,06,28,12,03,18.10
2012,06,28,12,04,18.10
2012,06,28,12,05,18.20
2012,06,28,12,06,18.20
2012,06,28,12,07,18.20
2012,06,28,12,08,18.20
2012,06,28,12,09,18.20
2012,06,28,12,10,18.10
2012,06,28,12,11,18.10
2012,06,28,12,12,17.90
2012,06,28,12,13,17.80
2012,06,28,12,14,17.70
2012,06,28,12,15,17.60
2012,06,28,12,16,17.60
2012,06,28,12,17,17.50
2012,06,28,12,18,17.40
2012,06,28,12,19,17.30
2012,06,28,12,20,17.30
2012,06,28,12,21,17.30
2012,06,28,12,22,17.20
2012,06,28,12,23,17.20
2012,06,28,12,24,17.10
2012,06,28,12,25,17.10
2012,06,28,12,26,17.20
2012,06,28,12,27,17.10
2012,06,28,12,28,17.10
2012,06,28,12,29,17.10
2012,06,28,12,30,17.10
2012,06,28,12,31,17.10
2012,06,28,12,32,17.10
2012,06,28,12,33,17.00
2012,06,28,12,34,17.00
2012,06,28,12,35,17.00
2012,06,28,12,36,16.90
2012,06,28,12,37,16.90
2012,06,28,12,38,16.80
2012,06,28,12,39,16.80
2012,06,28,12,40,16.80
2012,06,28,12,41,16.90
2012,06,28,12,42,16.90
2012,06,28,12,43,17.00
2012,06,28,12,44,17.00
2012,06,28,12,45,17.00
2012,06,28,12,46,17.00
2012,06,28,12,47,16.90
2012,06,28,12,48,16.90
2012,06,28,12,49,16.90
2012,06,28,12,50,16.90
2012,06,28,12,51,16.90
2012,06,28,12,52,16.90
2012,06,28,12,53,16.90
2012,06,28,12,54,17.00
2012,06,28,12,55,17.00
2012,06,28,12,56,17.00
2012,06,28,12,57,17.00
2012,06,28,12,58,17.00
2012,06,28,12,59,17.00
2012,06,28,13,00,17.00
2012,06,28,13,01,17.00
2012,06,28,13,02,17.00
2012,06,28,13,03,17.00
2012,06,28,13,04,17.00
2012,06,28,13,05,17.00
2012,06,28,13,06,16.90
2012,06,28,13,07,16.90
2012,06,28,13,08,16.80
2012,06,28,13,09,16.70
2012,06,28,13,10,16.70
2012,06,28,13,11,16.70
2012,06,28,13,12,16.70
2012,06,28,13,13,16.70
2012,06,28,13,14,16.70
2012,06,28,13,15,16.70
2012,06,28,13,16,16.70
2012,06,28,13,17,16.70
2012,06,28,13,18,16.70
2012,06,28,13,19,16.70
2012,06,28,13,20,16.70
2012,06,28,13,21,16.70
2012,06,28,13,22,16.70
2012,06,28,13,23,16.70
2012,06,28,13,24,16.70
2012,06,28,13,25,16.70
2012,06,28,13,26,16.70
2012,06,28,13,27,16.70
2012,06,28,13,28,16.80
2012,06,28,13,29,16.80
2012,06,28,13,30,16.80
2012,06,28,13,31,16.80
2012,06,28,13,32,16.80
2012,06,28,13,33,16.80
2012,06,28,13,34,16.80
2012,06,28,13,35,16.80
2012,06,28,13,36,16.80
2012,06,28,13,37,16.80
2012,06,28,13,38,16.90
2012,06,28,13,39,16.90
2012,06,28,13,40,16.90
2012,06,28,13,41,16.90
2012,06,28,13,42,17.00
2012,06,28,13,43,17.00
2012,06,28,13,44,17.00
2012,06,28,13,45,17.00
2012,06,28,13,46,17.00
2012,06,28,13,47,17.10
2012,06,28,13,48,17.10
2012,06,28,13,49,17.10
2012,06,28,13,50,17.10
2012,06,28,13,51,17.20
2012,06,28,13,52,17.20
2012,06,28,13,53,17.20
2012,06,28,13,54,17.20
2012,06,28,13,55,17.20
2012,06,28,13,56,17.30
2012,06,28,13,57,17.30
2012,06,28,13,58,17.30
2012,06,28,13,59,17.30
2012,06,28,14,00,17.30
2012,06,28,14,01,17.30
2012,06,28,14,02,17.30
2012,06,28,14,03,17.30
2012,06,28,14,04,17.30
2012,06,28,14,05,17.30
2012,06,28,14,06,17.30
2012,06,28,14,07,17.30
2012,06,28,14,08,17.30
2012,06,28,14,09,17.30
2012,06,28,14,10,17.30
2012,06,28,14,11,17.30
2012,06,28,14,12,17.30
2012,06,28,14,13,17.30
2012,06,28,14,14,17.30
2012,06,28,14,15,17.30
2012,06,28,14,16,17.40
2012,06,28,14,17,17.40
2012,06,28,14,18,17.50
2012,06,28,14,19,17.50
2012,06,28,14,20,17.60
2012,06,28,14,21,17.60
2012,06,28,14,22,17.60
2012,06,28,14,23,17.70
2012,06,28,14,24,17.70
2012,06,28,14,25,17.70
2012,06,28,14,26,17.70
2012,06,28,14,27,17.70
2012,06,28,14,28,17.70
2012,06,28,14,29,17.70
2012,06,28,14,30,17.70
2012,06,28,14,31,17.60
2012,06,28,14,32,17.60
2012,06,28,14,33,17.60
2012,06,28,14,34,17.60
2012,06,28,14,35,17.60
2012,06,28,14,36,17.60
2012,06,28,14,37,17.60
2012,06,28,14,38,17.60
2012,06,28,14,39,17.70
2012,06,28,14,40,17.70
2012,06,28,14,41,17.70
2012,06,28,14,42,17.70
2012,06,28,14,43,17.70
2012,06,28,14,44,17.70
2012,06,28,14,45,17.70
2012,06,28,14,46,17.70
2012,06,28,14,47,17.70
2012,06,28,14,48,17.70
2012,06,28,14,49,17.70
2012,06,28,14,50,17.70
2012,06,28,14,51,17.70
2012,06,28,14,52,17.70
2012,06,28,14,53,17.70
2012,06,28,14,54,17.70
2012,06,28,14,55,17.80
2012,06,28,14,56,17.80
2012,06,28,14,57,17.80
2012,06,28,14,58,17.80
2012,06,28,14,59,17.80
2012,06,28,15,00,17.80
2012,06,28,15,01,17.80
2012,06,28,15,02,17.90
2012,06,28,15,03,17.80
2012,06,28,15,04,17.80
2012,06,28,15,05,17.80
2012,06,28,15,06,17.80
2012,06,28,15,07,17.80
2012,06,28,15,08,17.80
2012,06,28,15,09,17.80
2012,06,28,15,10,17.80
2012,06,28,15,11,17.80
2012,06,28,15,12,17.80
2012,06,28,15,13,17.80
2012,06,28,15,14,17.80
2012,06,28,15,15,17.80
2012,06,28,15,16,17.80
2012,06,28,15,17,17.90
2012,06,28,15,18,17.90
2012,06,28,15,19,17.90
2012,06,28,15,20,17.90
2012,06,28,15,21,17.90
2012,06,28,15,22,17.90
2012,06,28,15,23,17.90
2012,06,28,15,24,17.90
2012,06,28,15,25,18.10
2012,06,28,15,26,18.10
2012,06,28,15,27,18.10
2012,06,28,15,28,18.10
2012,06,28,15,29,18.20
2012,06,28,15,30,18.20
2012,06,28,15,31,18.20
2012,06,28,15,32,18.20
2012,06,28,15,33,18.20
2012,06,28,15,34,18.20
2012,06,28,15,35,18.20
2012,06,28,15,36,18.20
2012,06,28,15,37,18.20
2012,06,28,15,38,18.20
2012,06,28,15,39,18.10
2012,06,28,15,40,18.00
2012,06,28,15,41,17.90
2012,06,28,15,42,17.90
2012,06,28,15,43,17.90
2012,06,28,15,44,17.90
2012,06,28,15,45,17.80
2012,06,28,15,46,17.80
2012,06,28,15,47,17.70
2012,06,28,15,48,17.70
2012,06,28,15,49,17.70
2012,06,28,15,50,17.70
2012,06,28,15,51,17.70
2012,06,28,15,52,17.70
2012,06,28,15,53,17.70
2012,06,28,15,54,17.70
2012,06,28,15,55,17.70
2012,06,28,15,56,17.70
2012,06,28,15,57,17.70
2012,06,28,15,58,17.70
2012,06,28,15,59,17.70
2012,06,28,16,00,17.70
2012,06,28,16,01,17.70
2012,06,28,16,02,17.70
2012,06,28,16,03,17.70
2012,06,28,16,04,17.70
2012,06,28,16,05,17.80
2012,06,28,16,06,17.80
2012,06,28,16,07,17.80
2012,06,28,16,08,17.70
2012,06,28,16,09,17.70
2012,06,28,16,10,17.70
2012,06,28,16,11,17.70
2012,06,28,16,12,17.60
2012,06,28,16,13,17.50
2012,06,28,16,14,17.50
2012,06,28,16,15,17.40
2012,06,28,16,16,17.30
2012,06,28,16,17,17.30
2012,06,28,16,18,17.30
2012,06,28,16,19,17.30
2012,06,28,16,20,17.40
2012,06,28,16,21,17.40
2012,06,28,16,22,17.40
2012,06,28,16,23,17.40
2012,06,28,16,24,17.40
2012,06,28,16,25,17.40
2012,06,28,16,26,17.40
2012,06,28,16,27,17.40
2012,06,28,16,28,17.40
2012,06,28,16,29,17.40
2012,06,28,16,30,17.40
2012,06,28,16,31,17.40
2012,06,28,16,32,17.40
2012,06,28,16,33,17.50
2012,06,28,16,34,17.50
2012,06,28,16,35,17.40
2012,06,28,16,36,17.40
2012,06,28,16,37,17.40
2012,06,28,16,38,17.40
2012,06,28,16,39,17.40
2012,06,28,16,40,17.30
2012,06,28,16,41,17.30
2012,06,28,16,42,17.30
2012,06,28,16,43,17.30
2012,06,28,16,44,17.30
2012,06,28,16,45,17.30
2012,06,28,16,46,17.20
2012,06,28,16,47,17.20
2012,06,28,16,48,17.20
2012,06,28,16,49,17.20
2012,06,28,16,50,17.20
2012,06,28,16,51,17.20
2012,06,28,16,52,17.20
2012,06,28,16,53,17.20
2012,06,28,16,54,17.10
2012,06,28,16,55,17.10
2012,06,28,16,56,17.10
2012,06,28,16,57,17.10
2012,06,28,16,58,17.10
2012,06,28,16,59,17.10
2012,06,28,17,00,17.00
2012,06,28,17,01,17.00
2012,06,28,17,02,17.00
2012,06,28,17,03,17.00
2012,06,28,17,04,17.00
2012,06,28,17,05,17.00
2012,06,28,17,06,16.90
2012,06,28,17,07,16.90
2012,06,28,17,08,16.80
2012,06,28,17,09,16.80
2012,06,28,17,10,16.70
2012,06,28,17,11,16.70
2012,06,28,17,12,16.70
2012,06,28,17,13,16.70
2012,06,28,17,14,16.70
2012,06,28,17,15,16.60
2012,06,28,17,16,16.60
2012,06,28,17,17,16.60
2012,06,28,17,18,16.60
2012,06,28,17,19,16.60
2012,06,28,17,20,16.50
2012,06,28,17,21,16.40
2012,06,28,17,22,16.40
2012,06,28,17,23,16.40
2012,06,28,17,24,16.40
2012,06,28,17,25,16.40
2012,06,28,17,26,16.40
2012,06,28,17,27,16.30
2012,06,28,17,28,16.30
2012,06,28,17,29,16.30
2012,06,28,17,30,16.30
2012,06,28,17,31,16.20
2012,06,28,17,32,16.20
2012,06,28,17,33,16.20
2012,06,28,17,34,16.10
2012,06,28,17,35,16.10
2012,06,28,17,36,16.10
2012,06,28,17,37,16.10